TimeEST,TemperatureF,Dew PointF,Humidity,Sea Level PressureIn,VisibilityMPH,Wind Direction,Wind SpeedMPH,Gust SpeedMPH,PrecipitationIn,Events,Conditions,WindDirDegrees,DateUTC
12:53 AM,23.0,15.1,72,30.14,10.0,SW,8.1,-,0.00,,Overcast,230,2013-02-04 05:53:00
1:53 AM,21.9,12.9,68,30.15,10.0,West,8.1,-,N/A,,Scattered Clouds,270,2013-02-04 06:53:00
6:53 AM,19.0,12.0,74,30.16,8.0,Calm,Calm,-,N/A,,Overcast,0,2013-02-04 11:53:00
7:53 AM,19.9,12.9,74,30.15,8.0,SSE,3.5,-,N/A,,Overcast,160,2013-02-04 12:53:00
8:53 AM,21.9,15.1,75,30.14,8.0,SSE,5.8,-,N/A,,Overcast,160,2013-02-04 13:53:00
9:53 AM,24.1,16.0,71,30.11,9.0,SSE,10.4,-,N/A,,Overcast,160,2013-02-04 14:53:00
10:53 AM,26.1,17.1,69,30.08,10.0,SSE,6.9,-,N/A,,Overcast,160,2013-02-04 15:53:00
11:53 AM,27.0,17.1,66,30.05,10.0,South,8.1,-,N/A,,Mostly Cloudy,180,2013-02-04 16:53:00
12:53 PM,28.9,17.1,61,30.03,10.0,SSW,5.8,-,N/A,,Overcast,200,2013-02-04 17:53:00
1:53 PM,30.0,18.0,61,29.98,10.0,South,3.5,-,N/A,,Overcast,170,2013-02-04 18:53:00
2:53 PM,30.0,21.0,69,29.96,2.5,SSE,5.8,-,0.00,Snow,Light Snow,160,2013-02-04 19:53:00
3:07 PM,30.2,21.2,69,29.93,3.0,SE,4.6,-,0.00,,Haze,130,2013-02-04 20:07:00
3:21 PM,30.2,21.2,69,29.92,1.8,SSE,5.8,-,0.00,Snow,Light Snow,150,2013-02-04 20:21:00
3:36 PM,30.2,23.0,75,29.91,2.5,South,4.6,-,0.00,Snow,Light Snow,170,2013-02-04 20:36:00
3:53 PM,28.9,24.1,82,29.94,4.0,SE,3.5,-,0.00,Snow,Light Snow,140,2013-02-04 20:53:00
4:06 PM,30.2,24.8,80,29.90,1.8,South,3.5,-,0.00,Snow,Light Snow,170,2013-02-04 21:06:00
4:16 PM,28.4,24.8,86,29.90,0.8,SSE,4.6,-,0.00,Snow,Light Snow,160,2013-02-04 21:16:00
4:29 PM,28.4,24.8,86,29.90,1.0,SSE,3.5,-,0.00,Snow,Light Snow,160,2013-02-04 21:29:00
4:37 PM,28.4,24.8,86,29.90,0.8,SSE,4.6,-,0.01,Snow,Light Snow,160,2013-02-04 21:37:00
4:53 PM,28.9,26.1,89,29.92,0.5,SSE,3.5,-,0.02,Fog-Snow,Light Snow,150,2013-02-04 21:53:00
5:10 PM,28.4,26.6,93,29.89,1.5,Calm,Calm,-,0.00,Snow,Light Snow,0,2013-02-04 22:10:00
5:30 PM,28.4,26.6,93,29.89,0.5,Calm,Calm,-,0.01,Fog-Snow,Snow,0,2013-02-04 22:30:00
5:40 PM,28.4,26.6,93,29.89,0.2,Calm,Calm,-,0.02,Fog-Snow,Snow,0,2013-02-04 22:40:00
5:53 PM,28.9,27.0,92,29.92,0.2,Calm,Calm,-,0.04,Fog-Snow,Snow,0,2013-02-04 22:53:00
6:01 PM,28.4,26.6,93,29.89,0.2,Calm,Calm,-,0.01,Fog-Snow,Snow,0,2013-02-04 23:01:00
6:27 PM,28.4,26.6,93,29.90,0.8,Calm,Calm,-,0.04,Snow,Light Snow,0,2013-02-04 23:27:00
6:53 PM,28.9,27.0,92,29.93,1.0,Calm,Calm,-,0.07,Snow,Light Snow,0,2013-02-04 23:53:00
7:00 PM,28.4,26.6,93,29.90,1.0,Calm,Calm,-,0.00,Snow,Light Snow,0,2013-02-05 00:00:00
7:33 PM,30.2,28.4,93,29.90,1.8,Calm,Calm,-,0.02,Snow,Light Snow,0,2013-02-05 00:33:00
7:53 PM,30.0,28.0,92,29.93,1.2,SSE,3.5,-,0.03,Snow,Light Snow,150,2013-02-05 00:53:00
8:45 PM,30.2,28.4,93,29.90,3.0,Calm,Calm,-,0.01,,Overcast,0,2013-02-05 01:45:00
8:53 PM,30.9,28.9,92,29.93,2.5,SSE,4.6,-,0.01,,Overcast,150,2013-02-05 01:53:00
9:05 PM,30.2,28.4,93,29.90,1.8,SSE,3.5,-,0.00,Rain,Light Freezing Rain,150,2013-02-05 02:05:00
9:51 PM,33.8,30.2,87,29.89,2.0,South,6.9,-,0.00,,Overcast,190,2013-02-05 02:51:00
9:53 PM,33.1,30.9,92,29.92,3.0,South,9.2,-,0.00,,Overcast,190,2013-02-05 02:53:00
10:53 PM,33.1,32.0,96,29.92,8.0,SSW,4.6,-,N/A,,Overcast,200,2013-02-05 03:53:00
11:53 PM,34.0,32.0,92,29.91,8.0,SSW,3.5,-,N/A,,Overcast,210,2013-02-05 04:53:00